Starlink 31157

operational
NORAD ID: 58735 Int'l Des: 2024-005 Owner: SPXS Country: US Constellation: starlink
LEOCIRCULAR

Über Starlink 31157

Beschreibung wird geladen...

Live-Position

3D-Globus wird geladen...

Nächste Überflüge

Höhenverlauf

Altitude vs Time

uPlot chart will show altitude changes over time

Zweizeiliger Elementsatz

1 58735U 24005H 25351.23045191 -.00000302 00000-0 -73042-5 0 9998
2 58735 43.0047 310.0200 0001181 270.0800 89.9907 15.02536431108014
Epoch: 17. Dez. 2025 • Age: 25 hours

Aktueller Status

Höhe 567.3 km
Geschwindigkeit 7.58 km/s
Subsatellitenpunkt -31.82°S, 18.58°W
Startdatum 7. Jan. 2024
Alter 1.9 years
Typ internet

Technische Details

Klassifizierung Payload
Masse 730.00 kg
Trockenmasse 700.00 kg
Gesamtmasse 730.00 kg
Länge 0.30 m
Durchmesser 4.10 m
Spannweite 29.00 m
Form Box + pan
Hersteller SPXS
Bus-Typ Starlink V2M
Phasenstatus In Orbit
Besitzer/Staat SPXS/US

Große Konstellationen

Loading constellations...